GW4288 Weather Reports


time (UTC)temp
F
wind
direction
speed
knots
gust
knots
rain 1hr
in
rain 24hr
in
rain mn
in
humidity
%
barometer
mb
20260507094052 66 326 2.6 7.0 0.00 0.00 0.00 68 1012.3
20260507093555 67 70 3.5 7.0 0.00 0.00 0.00 66 1012.2
20260507093055 67 138 1.7 7.0 0.00 0.00 0.00 65 1012.3
20260507092555 66 29 0.0 7.0 0.00 0.00 0.00 68 1012.1
20260507092055 66 93 3.5 6.1 0.00 0.00 0.00 67 1012.1
20260507091542 65 54 1.7 8.7 0.00 0.00 0.00 69 1012.2
20260507091042 64 29 3.5 8.7 0.00 0.00 0.00 70 1012.3
20260507090545 65 88 1.7 6.1 0.00 0.00 0.00 70 1012.0
20260507090046 66 86 4.3 7.0 0.00 0.00 0.00 67 1011.9
20260507085542 64 96 0.9 7.0 0.00 0.00 0.00 71 1012.2
20260507085042 64 325 3.5 7.8 0.00 0.00 0.00 70 1012.1
20260507084557 65 87 6.1 8.7 0.00 0.00 0.00 72 1011.9
20260507084043 64 81 1.7 8.7 0.00 0.00 0.00 72 1012.0
20260507083542 64 123 5.2 7.8 0.00 0.00 0.00 73 1011.9
20260507083042 65 302 0.9 7.8 0.00 0.00 0.00 71 1011.8
20260507082817 64 34 1.7 12.2 0.00 0.00 0.00 72 1011.7
20260507082044 63 44 3.5 12.2 0.00 0.00 0.00 73 1011.7
20260507081542 63 65 4.3 8.7 0.00 0.00 0.00 72 1011.7
20260507081042 63 9 0.9 8.7 0.00 0.00 0.00 73 1011.7
20260507080542 63 39 6.1 8.7 0.00 0.00 0.00 73 1011.7
20260507080044 63 3 1.7 7.8 0.00 0.00 0.00 73 1011.6
20260507075542 62 80 2.6 8.7 0.00 0.00 0.00 73 1011.8
20260507075041 62 98 1.7 8.7 0.00 0.00 0.00 74 1011.7
20260507074543 62 331 5.2 7.8 0.00 0.00 0.00 75 1011.6
20260507074045 62 76 2.6 7.8 0.00 0.00 0.00 74 1011.8
20260507073542 62 257 0.9 7.8 0.00 0.00 0.00 75 1011.7
20260507073043 61 98 2.6 7.8 0.00 0.00 0.00 76 1011.6
20260507072542 62 351 2.6 6.1 0.00 0.00 0.00 75 1011.7
20260507072042 63 133 0.9 8.7 0.00 0.00 0.00 74 1011.7
20260507071542 61 74 1.7 8.7 0.00 0.00 0.00 76 1011.7
20260507071042 60 128 2.6 6.1 0.00 0.00 0.00 78 1011.6
20260507070543 60 43 1.7 5.2 0.00 0.00 0.00 78 1011.4
20260507070042 61 110 0.9 3.5 0.00 0.00 0.00 78 1011.5
20260507065542 60 326 1.7 12.2 0.00 0.00 0.00 79 1011.4
20260507065042 60 87 0.9 12.2 0.00 0.00 0.00 79 1011.5
20260507064541 60 345 0.9 9.6 0.00 0.00 0.00 80 1011.6
20260507064041 59 99 6.1 9.6 0.00 0.00 0.00 80 1011.2
20260507063543 60 75 3.5 6.1 0.00 0.00 0.00 79 1011.1
20260507063045 60 18 0.9 7.8 0.00 0.00 0.00 79 1011.3
20260507062542 59 278 4.3 7.8 0.00 0.00 0.00 79 1011.0
20260507062043 59 55 1.7 7.8 0.00 0.00 0.00 80 1010.9
20260507061541 60 77 3.5 8.7 0.00 0.00 0.00 80 1011.0
20260507061042 59 38 0.9 8.7 0.00 0.00 0.00 80 1010.9
20260507060543 60 42 2.6 7.8 0.00 0.00 0.00 80 1010.9
20260507060042 59 101 3.5 7.0 0.00 0.00 0.00 80 1011.0
20260507055542 59 33 0.0 7.0 0.00 0.00 0.00 80 1010.9
20260507055042 60 112 1.7 6.1 0.00 0.00 0.00 80 1011.1
20260507054542 59 78 0.0 7.8 0.00 0.00 0.00 80 1010.9
20260507054042 59 97 1.7 7.8 0.00 0.00 0.00 80 1010.7
20260507053542 59 87 1.7 6.1 0.00 0.00 0.00 80 1010.7
20260507053043 59 11 0.9 3.5 0.00 0.00 0.00 80 1010.7
20260507052542 59 103 0.9 5.2 0.00 0.00 0.00 80 1010.5
20260507052042 59 236 1.7 5.2 0.00 0.00 0.00 80 1010.5
20260507051542 60 90 1.7 2.6 0.00 0.00 0.00 79 1010.2
20260507051327 59 190 0.9 6.1 0.00 0.00 0.00 80 1010.3
20260507050541 59 329 2.6 6.1 0.00 0.00 0.00 80 1010.1
20260507050042 59 66 2.6 7.8 0.00 0.00 0.00 80 1010.0
20260507045542 59 174 2.6 7.8 0.00 0.00 0.00 80 1010.0
20260507045041 59 106 1.7 6.1 0.00 0.00 0.00 81 1009.9
20260507044820 59 137 1.7 6.1 0.00 0.00 0.00 81 1009.8
20260507044041 59 84 1.7 7.0 0.00 0.00 0.00 81 1009.8
20260507043818 59 78 4.3 7.0 0.00 0.00 0.00 81 1009.7
20260507043325 59 342 1.7 2.6 0.00 0.00 0.00 81 1009.8
20260507042542 59 342 0.0 5.2 0.00 0.00 0.00 81 1009.7
20260507042047 59 92 1.7 7.8 0.00 0.00 0.00 81 1009.7
20260507041544 59 126 1.7 8.7 0.00 0.00 0.00 81 1009.8
20260507041047 59 96 5.2 8.7 0.00 0.00 0.00 81 1009.6
20260507040544 59 73 3.5 7.0 0.00 0.00 0.00 81 1009.6
20260507040340 59 89 0.9 5.2 0.00 0.00 0.00 81 1009.5
20260507035544 59 157 1.7 5.2 0.00 0.00 0.00 80 1009.5
20260507035328 59 138 1.7 5.2 0.00 0.00 0.00 80 1009.2
20260507034544 59 83 0.9 3.5 0.00 0.00 0.00 80 1009.3
20260507034047 59 112 2.6 7.8 0.00 0.00 0.00 80 1009.1
20260507033545 59 270 4.3 7.8 0.00 0.00 0.00 80 1009.0
20260507033047 59 33 0.0 6.1 0.00 0.00 0.00 80 1009.0
20260507032544 59 119 0.0 6.1 0.00 0.00 0.00 80 1008.7
20260507032330 59 142 0.9 8.7 0.00 0.00 0.00 80 1008.8
20260507031544 60 60 2.6 11.3 0.00 0.00 0.00 79 1008.8
20260507031047 60 118 2.6 11.3 0.00 0.00 0.00 79 1008.7
20260507030544 60 63 8.7 9.6 0.00 0.00 0.00 79 1008.6
20260507030059 60 108 4.3 6.1 0.00 0.00 0.00 79 1008.5
20260507025544 60 112 1.7 6.1 0.00 0.00 0.00 79 1008.7
20260507025323 60 21 0.0 6.1 0.00 0.00 0.00 78 1008.6
20260507024544 60 54 1.7 6.1 0.00 0.00 0.00 78 1008.6
20260507024048 60 125 0.9 6.1 0.00 0.00 0.00 79 1008.6
20260507023545 60 51 0.9 8.7 0.00 0.00 0.00 78 1008.7
20260507023047 60 147 0.0 8.7 0.00 0.00 0.00 78 1008.5
20260507022819 60 209 2.6 7.0 0.00 0.00 0.00 78 1008.4
20260507022100 60 58 2.6 8.7 0.00 0.00 0.00 77 1008.4
20260507021545 60 200 0.9 8.7 0.00 0.00 0.00 77 1008.3
20260507021047 60 123 0.9 11.3 0.00 0.00 0.00 77 1008.4
20260507020544 61 15 5.2 12.2 0.00 0.00 0.00 77 1008.4
20260507020338 61 93 0.9 13.0 0.00 0.00 0.00 77 1008.2
20260507015545 61 129 1.7 16.5 0.00 0.00 0.00 77 1008.1
20260507015047 61 75 3.5 16.5 0.00 0.00 0.00 77 1008.2
20260507014544 61 99 7.8 14.8 0.00 0.00 0.00 76 1008.2
20260507014047 61 24 4.3 14.8 0.00 0.00 0.00 76 1007.7
20260507013544 61 79 1.7 11.3 0.00 0.00 0.00 76 1008.1
20260507013048 61 153 1.7 13.9 0.00 0.00 0.00 76 1008.0
20260507012544 61 93 3.5 13.9 0.00 0.00 0.00 76 1008.0
20260507012047 61 58 3.5 19.1 0.00 0.00 0.00 76 1007.9
20260507011544 61 68 0.9 19.1 0.00 0.00 0.00 76 1007.9
20260507011100 61 98 3.5 13.0 0.00 0.00 0.00 76 1008.1
20260507010545 61 112 5.2 14.8 0.00 0.00 0.00 76 1007.9
20260507010100 61 80 3.5 14.8 0.00 0.00 0.00 76 1007.7
20260507005544 61 88 3.5 14.8 0.00 0.00 0.00 76 1008.0
20260507005328 61 111 4.3 14.8 0.00 0.00 0.00 75 1007.6
20260507004544 61 99 5.2 14.8 0.00 0.00 0.00 75 1007.6
20260507004047 61 59 8.7 13.0 0.00 0.00 0.00 75 1007.7
20260507003544 61 100 2.6 8.7 0.00 0.00 0.00 75 1007.4
20260507003046 61 70 7.8 8.7 0.00 0.00 0.00 75 1007.5
20260507002822 61 176 0.9 6.1 0.00 0.00 0.00 75 1007.7
20260507002047 61 133 0.9 14.8 0.00 0.00 0.00 76 1007.7
20260507001544 62 182 1.7 14.8 0.00 0.00 0.00 74 1007.7
20260507001047 62 138 0.9 12.2 0.00 0.00 0.00 74 1007.9
20260507000544 62 50 7.8 12.2 0.00 0.00 0.00 74 1007.6
20260507000101 62 112 2.6 12.2 0.00 0.00 0.00 74 1007.9
20260506235544 62 291 2.6 11.3 0.00 0.00 0.00 73 1007.9
20260506235048 62 95 4.3 11.3 0.00 0.00 0.00 74 1007.5
20260506234545 62 153 2.6 11.3 0.00 0.00 0.00 73 1007.7
20260506234058 62 42 3.5 9.6 0.00 0.00 0.00 73 1007.9
20260506233544 62 108 3.5 6.1 0.00 0.00 0.00 73 1007.3
20260506233048 62 76 2.6 8.7 0.00 0.00 0.00 73 1007.6
20260506232544 62 26 3.5 13.9 0.00 0.00 0.00 73 1007.7
20260506232048 63 85 5.2 13.9 0.00 0.00 0.00 72 1007.9
20260506231545 62 86 0.9 9.6 0.00 0.00 0.00 73 1007.9
20260506231121 63 15 3.5 13.0 0.00 0.00 0.00 72 1007.7
20260506231107 62 44 1.7 5.2 0.00 0.00 0.00 73 1007.9
20260506230100 63 4 4.3 13.0 0.00 0.00 0.00 72 1007.7
20260506225544 63 42 0.9 11.3 0.00 0.00 0.00 72 1007.6
20260506225048 63 143 3.5 12.2 0.00 0.00 0.00 72 1007.5
20260506224544 63 67 0.9 12.2 0.00 0.00 0.00 72 1007.6
20260506224048 63 295 3.5 8.7 0.00 0.00 0.00 71 1007.7
20260506223819 63 16 4.3 8.7 0.00 0.00 0.00 70 1007.6
20260506223047 63 69 1.7 8.7 0.00 0.00 0.00 71 1007.3
20260506222817 64 17 1.7 7.8 0.00 0.00 0.00 71 1007.4
20260506222047 63 220 3.5 6.1 0.00 0.00 0.00 71 1007.4
20260506221816 63 285 0.0 15.6 0.00 0.00 0.00 71 1007.5
20260506221047 64 250 2.6 15.6 0.00 0.00 0.00 70 1007.5
20260506220544 64 62 1.7 13.9 0.00 0.00 0.00 70 1007.5
20260506220047 64 154 4.3 8.7 0.00 0.00 0.00 70 1007.5
20260506215544 64 13 1.7 8.7 0.00 0.00 0.00 70 1007.3
20260506215047 64 67 2.6 8.7 0.00 0.00 0.00 70 1007.3
20260506214832 64 205 5.2 7.0 0.00 0.00 0.00 69 1007.3
20260506214322 64 272 2.6 11.3 0.00 0.00 0.00 69 1007.3
20260506213828 64 73 1.7 11.3 0.00 0.00 0.00 69 1007.5
20260506213047 64 127 0.9 12.2 0.00 0.00 0.00 69 1007.3
20260506212544 65 89 1.7 12.2 0.00 0.00 0.00 68 1007.5
20260506212048 65 88 0.9 14.8 0.00 0.00 0.00 68 1007.4
20260506211544 65 77 4.3 14.8 0.00 0.00 0.00 68 1007.4
20260506211047 65 89 1.7 13.9 0.00 0.00 0.00 68 1007.3
20260506210544 65 251 2.6 11.3 0.00 0.00 0.00 67 1007.2
20260506210100 65 18 3.5 13.0 0.00 0.00 0.00 67 1007.1
20260506205544 65 99 4.3 18.2 0.00 0.00 0.00 66 1007.0
20260506205326 66 15 5.2 18.2 0.00 0.00 0.00 66 1007.2
20260506204543 65 83 7.8 9.6 0.00 0.00 0.00 66 1007.1
20260506204047 66 101 2.6 7.8 0.00 0.00 0.00 66 1007.1
20260506203547 65 331 5.2 7.8 0.00 0.00 0.00 66 1006.9
20260506203047 66 28 2.6 7.8 0.00 0.00 0.00 66 1006.8
20260506202544 66 70 2.6 11.3 0.00 0.00 0.00 65 1006.9
20260506202046 66 168 7.0 11.3 0.00 0.00 0.00 65 1006.8
20260506201544 66 17 3.5 13.0 0.00 0.00 0.00 65 1006.7
20260506201047 66 88 2.6 13.0 0.00 0.00 0.00 64 1006.8
20260506200545 66 84 6.1 8.7 0.00 0.00 0.00 64 1006.7
20260506195544 67 96 6.1 13.9 0.00 0.00 0.00 63 1006.7
20260506195046 67 101 4.3 8.7 0.00 0.00 0.00 63 1006.7
20260506194544 67 53 1.7 8.7 0.00 0.00 0.00 63 1006.7
20260506194047 66 69 1.7 8.7 0.00 0.00 0.00 63 1006.8
20260506193544 66 75 0.9 9.6 0.00 0.00 0.00 64 1006.7
20260506193047 67 271 0.0 14.8 0.00 0.00 0.00 63 1006.6
20260506192827 67 83 2.6 14.8 0.00 0.00 0.00 62 1006.7
20260506192047 67 134 3.5 7.0 0.00 0.00 0.00 62 1006.9
20260506191821 67 126 2.6 8.7 0.00 0.00 0.00 61 1006.9
20260506191047 67 75 6.1 8.7 0.00 0.00 0.00 61 1006.7
20260506190545 67 104 0.0 18.2 0.00 0.00 0.00 62 1006.7
20260506190100 68 59 4.3 18.2 0.00 0.00 0.00 61 1006.8
20260506185546 68 144 4.3 8.7 0.00 0.00 0.00 60 1006.7
20260506185047 68 40 3.5 11.3 0.00 0.00 0.00 60 1006.7
20260506184544 68 91 6.1 11.3 0.00 0.00 0.00 60 1006.8
20260506184047 68 151 0.0 9.6 0.00 0.00 0.00 61 1006.5
20260506183544 69 37 0.9 9.6 0.00 0.00 0.00 60 1006.4
20260506183047 69 49 2.6 9.6 0.00 0.00 0.00 60 1006.2
20260506182544 68 124 4.3 7.0 0.00 0.00 0.00 60 1006.1
20260506182037 69 51 3.5 7.0 0.00 0.00 0.00 59 1006.1
20260506181810 69 95 2.6 9.6 0.00 0.00 0.00 60 1006.3
20260506181023 69 120 3.5 11.3 0.00 0.00 0.00 59 1006.1
20260506180521 69 74 4.3 11.3 0.00 0.00 0.00 59 1006.1
20260506180017 69 91 0.9 8.7 0.00 0.00 0.00 58 1006.3
20260506175517 69 106 1.7 8.7 0.00 0.00 0.00 59 1006.0
20260506175014 69 79 2.6 11.3 0.00 0.00 0.00 58 1006.1
20260506174506 69 46 2.6 11.3 0.00 0.00 0.00 58 1006.1
20260506174005 70 128 5.2 13.0 0.00 0.00 0.00 58 1006.3
20260506173503 70 97 7.0 13.0 0.00 0.00 0.00 57 1006.2
20260506172953 70 49 6.1 12.2 0.00 0.00 0.00 57 1006.3
20260506172454 70 79 3.5 12.2 0.00 0.00 0.00 57 1006.2
20260506171953 70 66 0.0 8.7 0.00 0.00 0.00 59 1006.2
20260506171454 70 107 0.9 9.6 0.00 0.00 0.00 58 1006.6
20260506170954 70 69 3.5 14.8 0.00 0.00 0.00 58 1006.2
20260506170506 71 89 3.5 14.8 0.00 0.00 0.00 58 1006.4
20260506165953 71 124 2.6 16.5 0.00 0.00 0.00 57 1006.4
20260506165453 71 28 3.5 16.5 0.00 0.00 0.00 58 1006.5
20260506164954 71 157 7.0 11.3 0.00 0.00 0.00 58 1006.5
20260506164453 71 78 1.7 13.9 0.00 0.00 0.00 58 1006.5
20260506163954 71 93 1.7 20.0 0.00 0.00 0.00 58 1006.5
20260506163454 71 71 2.6 20.0 0.00 0.00 0.00 58 1006.4
20260506162954 71 1 4.3 12.2 0.00 0.00 0.00 58 1006.7
20260506162731 71 126 2.6 12.2 0.00 0.00 0.00 58 1006.5
20260506161953 71 39 7.8 12.2 0.00 0.00 0.00 57 1006.8
20260506161453 72 113 3.5 14.8 0.00 0.00 0.00 58 1006.7
20260506161231 71 109 0.9 14.8 0.00 0.00 0.00 57 1006.9
20260506160454 71 104 5.2 13.0 0.00 0.00 0.00 57 1006.9
20260506160305 71 85 2.6 7.8 0.00 0.00 0.00 57 1007.1
20260506155453 71 52 1.7 7.0 0.00 0.00 0.00 57 1007.2
20260506154952 71 228 0.9 7.0 0.00 0.00 0.00 57 1007.0
20260506154453 71 101 6.1 9.6 0.00 0.00 0.00 57 1007.1
20260506154233 71 148 3.5 9.6 0.00 0.00 0.00 57 1007.3
20260506153454 71 42 2.6 11.3 0.00 0.00 0.00 57 1007.3
20260506152954 71 48 6.1 11.3 0.00 0.00 0.00 57 1007.4
20260506152454 71 43 5.2 11.3 0.00 0.00 0.00 57 1007.3
20260506151952 71 75 5.2 11.3 0.00 0.00 0.00 57 1007.4
20260506151454 71 61 3.5 13.9 0.00 0.00 0.00 57 1007.4
20260506151008 71 18 2.6 7.8 0.00 0.00 0.00 57 1007.5
20260506150959 71 92 2.6 13.9 0.00 0.00 0.00 57 1007.4
20260506150239 72 120 5.2 7.8 0.00 0.00 0.00 57 1007.5
20260506145454 73 130 0.0 8.7 0.00 0.00 0.00 57 1007.7
20260506144954 73 60 0.0 8.7 0.00 0.00 0.00 57 1008.0
20260506144730 73 351 0.9 14.8 0.00 0.00 0.00 56 1007.7
20260506143952 71 170 0.9 15.6 0.00 0.00 0.00 56 1007.9
20260506143453 71 219 3.5 15.6 0.00 0.00 0.00 57 1007.9
20260506142951 71 91 4.3 12.2 0.00 0.00 0.00 57 1008.1
20260506142452 71 140 3.5 12.2 0.00 0.00 0.00 58 1007.9
20260506141951 71 75 7.8 13.0 0.00 0.00 0.00 57 1007.9
20260506141450 71 285 0.0 15.6 0.00 0.00 0.00 58 1007.9
20260506140951 72 75 13.9 15.6 0.00 0.00 0.00 57 1008.1
20260506140535 72 133 1.7 13.9 0.00 0.00 0.00 57 1008.2
20260506140522 72 103 13.0 14.8 0.00 0.00 0.00 56 1008.2
20260506135451 71 108 3.5 13.0 0.00 0.00 0.00 59 1008.3
20260506134952 71 132 3.5 13.0 0.00 0.00 0.00 58 1008.3
20260506134451 71 53 4.3 14.8 0.00 0.00 0.00 58 1008.3
20260506133952 71 255 3.5 14.8 0.00 0.00 0.00 59 1008.4
20260506133451 72 90 1.7 8.7 0.00 0.00 0.00 60 1008.2
20260506132951 71 58 0.9 9.6 0.00 0.00 0.00 60 1008.5
20260506132454 70 49 5.2 12.2 0.00 0.00 0.00 60 1008.6
20260506131954 71 83 1.7 12.2 0.00 0.00 0.00 60 1008.5
20260506131453 72 99 7.0 12.2 0.00 0.00 0.00 58 1008.6
20260506131231 71 88 1.7 9.6 0.00 0.00 0.00 58 1008.4
20260506130453 72 90 1.7 8.7 0.00 0.00 0.00 57 1008.5
20260506125953 72 231 1.7 8.7 0.00 0.00 0.00 56 1008.4
20260506125453 72 173 0.9 9.6 0.00 0.00 0.00 55 1008.5
20260506124954 72 94 5.2 9.6 0.00 0.00 0.00 56 1008.6
20260506124454 71 29 0.9 13.9 0.00 0.00 0.00 55 1008.5
20260506123954 71 64 5.2 13.9 0.00 0.00 0.00 55 1008.4
20260506123455 73 114 1.7 6.1 0.00 0.00 0.00 53 1008.6
20260506122953 72 14 0.0 9.6 0.00 0.00 0.00 54 1008.7
20260506122453 72 83 0.0 12.2 0.00 0.00 0.00 54 1008.6
20260506121954 73 341 2.6 12.2 0.00 0.00 0.00 53 1008.5
20260506121455 74 295 5.2 8.7 0.00 0.00 0.00 52 1008.7
20260506120954 74 296 1.7 9.6 0.00 0.00 0.00 51 1008.6
20260506120453 73 78 1.7 14.8 0.00 0.00 0.00 52 1008.3
20260506115953 71 93 2.6 14.8 0.00 0.00 0.00 55 1008.7
20260506115454 73 73 0.9 13.0 0.00 0.00 0.00 53 1008.6
20260506115012 73 46 6.1 7.8 0.00 0.00 0.00 55 1008.7
20260506115002 71 85 3.5 13.0 0.00 0.00 0.00 54 1008.6
20260506113953 73 253 1.7 9.6 0.00 0.00 0.00 54 1008.8
20260506113447 71 4 3.5 12.2 0.00 0.00 0.00 56 1008.8
20260506112947 74 122 3.5 12.2 0.00 0.00 0.00 53 1009.1
20260506112448 72 81 5.2 9.6 0.00 0.00 0.00 53 1008.7
20260506111943 73 21 4.3 9.6 0.00 0.00 0.00 53 1008.9
20260506111459 73 65 1.7 9.6 0.00 0.00 0.00 54 1008.7
20260506110942 73 112 5.2 9.6 0.00 0.00 0.00 53 1008.8
20260506110445 72 95 1.7 7.0 0.00 0.00 0.00 55 1008.8
20260506105941 72 84 2.6 11.3 0.00 0.00 0.00 54 1008.8
20260506105444 70 87 0.0 11.3 0.00 0.00 0.00 55 1008.8
20260506105222 71 114 2.6 11.3 0.00 0.00 0.00 55 1008.8
20260506104446 71 1 3.5 11.3 0.00 0.00 0.00 55 1008.8
20260506103941 72 64 7.0 9.6 0.00 0.00 0.00 54 1008.9
20260506103728 73 13 1.7 5.2 0.00 0.00 0.00 52 1009.1
20260506102941 71 44 1.7 5.2 0.00 0.00 0.00 55 1008.9
20260506102445 70 314 2.6 8.7 0.00 0.00 0.00 57 1009.2
20260506101942 70 313 0.9 13.0 0.00 0.00 0.00 57 1009.1
20260506101444 70 329 3.5 13.0 0.00 0.00 0.00 57 1009.0
20260506100945 69 96 4.3 6.1 0.00 0.00 0.00 58 1009.1
20260506100502 69 55 0.9 6.1 0.00 0.00 0.00 60 1009.1
20260506095944 69 113 0.9 6.1 0.00 0.00 0.00 61 1009.1
20260506095446 68 88 4.3 6.1 0.00 0.00 0.00 61 1009.2
20260506094941 68 83 1.7 7.0 0.00 0.00 0.00 62 1009.2
20260506094445 69 65 4.3 11.3 0.00 0.00 0.00 62 1009.4